#timestamp,LO_Frequency,Hit,Temp,Hum 
1493852415.1,286047033.7,N,0.0,0.0
1493852435.9,286047033.7,N,0.0,0.0
1493852455.8,286047034.4,N,0.0,0.0
1493852475.7,286047036.4,N,0.0,0.0
1493852495.5,286047034.0,N,0.0,0.0
1493852515.3,286047034.7,N,0.0,0.0
1493852535.2,286047032.2,N,0.0,0.0
1493852555.9,286047030.8,N,0.0,0.0
1493852575.7,286047032.9,N,0.0,0.0
1493852595.5,286047033.6,N,0.0,0.0
1493852615.4,286047034.7,N,0.0,0.0
1493852635.2,286047031.9,N,0.0,0.0
1493852655.0,286047032.8,N,0.0,0.0
1493852655.9,286047032.8,N,0.0,0.0
1493852675.8,286047033.0,N,0.0,0.0
1493852695.6,286047029.5,N,0.0,0.0
1493852715.4,286047045.0,N,0.0,0.0
1493852735.3,286047042.9,N,0.0,0.0
1493852755.1,286047358.7,N,0.0,0.0
1493852775.8,286047045.9,N,0.0,0.0
1493852795.7,286047039.9,N,0.0,0.0
1493852815.4,286047040.0,N,0.0,0.0
1493852835.2,286047040.6,N,0.0,0.0
1493852855.6,286047044.1,N,0.0,0.0
1493852875.4,286047045.9,N,0.0,0.0
1493852895.3,286047036.2,N,0.0,0.0
1493852915.1,286047043.2,N,0.0,0.0
1493852916.0,286047043.2,N,0.0,0.0
1493852935.8,286047034.2,N,0.0,0.0
1493852955.7,286047030.6,N,0.0,0.0
1493852975.5,286047043.3,N,0.0,0.0
1493852995.3,286047042.6,N,0.0,0.0
1493853015.2,286046801.3,N,0.0,0.0
1493853035.9,286047023.2,N,0.0,0.0
1493853055.7,286047023.3,N,0.0,0.0
1493853075.6,286047015.7,N,0.0,0.0
1493853095.4,286047021.2,N,0.0,0.0
1493853115.2,286047022.7,N,0.0,0.0
1493853135.1,286047020.3,N,0.0,0.0
1493853136.0,286047020.3,N,0.0,0.0
1493853155.8,286047025.4,N,0.0,0.0
1493853175.6,286047025.6,N,0.0,0.0
1493853195.5,286047014.4,N,0.0,0.0
1493853215.3,286047016.7,N,0.0,0.0
1493853235.1,286047023.0,N,0.0,0.0
1493853255.2,286047006.9,N,0.0,0.0
1493853275.0,286047007.0,N,0.0,0.0
1493853295.6,286047022.6,N,0.0,0.0
1493853315.5,286047003.6,N,0.0,0.0
1493853335.3,286047007.0,N,0.0,0.0
1493853355.1,286047026.6,N,0.0,0.0
1493853375.9,286047003.1,N,0.0,0.0
1493853395.7,286047003.0,N,0.0,0.0
1493853415.5,286047027.7,N,0.0,0.0
1493853435.9,286047024.7,N,0.0,0.0
1493853455.7,286046996.8,N,0.0,0.0
1493853475.5,286046997.7,N,0.0,0.0
1493853495.8,286047021.8,N,0.0,0.0
1493853515.6,286046990.8,N,0.0,0.0
1493853535.7,286047021.9,N,0.0,0.0
1493853555.5,286047018.9,N,0.0,0.0
1493853575.3,286047019.2,N,0.0,0.0
1493853595.2,286047021.5,N,0.0,0.0
1493853615.9,286047021.9,N,0.0,0.0
1493853635.7,286047019.7,N,0.0,0.0
1493853655.6,286047021.1,N,0.0,0.0
1493853675.4,286047023.4,N,0.0,0.0
1493853695.9,286047019.4,N,0.0,0.0
1493853715.7,286047021.5,N,0.0,0.0
1493853735.5,286046980.1,N,0.0,0.0
1493853755.4,286046977.4,N,0.0,0.0
1493853775.2,286046981.7,N,0.0,0.0
1493853795.0,286046977.4,N,0.0,0.0
1493853795.9,286046977.4,N,0.0,0.0
1493853815.7,286046960.3,N,0.0,0.0
1493853835.6,286046959.0,N,0.0,0.0
1493853855.4,286046970.4,N,0.0,0.0
1493853875.6,286046968.7,N,0.0,0.0
1493853895.4,286046969.1,N,0.0,0.0
1493853915.2,286046967.1,N,0.0,0.0
1493853935.1,286046953.7,N,0.0,0.0
1493853936.0,286046953.7,N,0.0,0.0
1493853955.8,286046962.6,N,0.0,0.0
1493853975.7,286046954.9,N,0.0,0.0
1493853995.5,286046957.0,N,0.0,0.0
1493854015.4,286046954.6,N,0.0,0.0
1493854035.2,286046953.5,N,0.0,0.0
1493854055.0,286047014.9,N,0.0,0.0
1493854055.9,286047014.9,N,0.0,0.0
1493854075.8,286046900.2,N,0.0,0.0
1493854095.1,286046952.3,N,0.0,0.0
1493854115.9,286046954.1,N,0.0,0.0
1493854135.2,286046900.4,N,0.0,0.0
1493854155.1,286046899.0,N,0.0,0.0
1493854175.3,286046947.5,N,0.0,0.0
1493854195.1,286046943.8,N,0.0,0.0
1493854196.0,286046943.8,N,0.0,0.0
1493854215.8,286046900.2,N,0.0,0.0
1493854235.7,286046900.0,N,0.0,0.0
1493854255.5,286046939.3,N,0.0,0.0
1493854275.3,286046898.6,N,0.0,0.0
1493854295.2,286046898.5,N,0.0,0.0
1493854315.9,286046899.8,N,0.0,0.0
1493854335.7,286046934.2,N,0.0,0.0
1493854355.6,286046937.1,N,0.0,0.0
1493854375.4,286046952.0,N,0.0,0.0
1493854395.3,286046902.9,N,0.0,0.0
1493854415.1,286046903.1,N,0.0,0.0
1493854435.8,286046926.4,N,0.0,0.0
1493854455.7,286046925.7,N,0.0,0.0
1493854475.5,286046924.5,N,0.0,0.0
1493854495.3,286046921.8,N,0.0,0.0
1493854515.2,286046900.0,N,0.0,0.0
1493854535.9,286046898.2,N,0.0,0.0
1493854555.7,286046900.4,N,0.0,0.0
1493854575.6,286046901.4,N,0.0,0.0
1493854595.4,286046902.0,N,0.0,0.0
1493854615.2,286046900.5,N,0.0,0.0
1493854635.1,286046900.9,N,0.0,0.0
1493854636.0,286046900.9,N,0.0,0.0
1493854655.8,286046901.3,N,0.0,0.0
1493854675.6,286046901.5,N,0.0,0.0
1493854695.5,286046900.9,N,0.0,0.0
1493854715.3,286046901.2,N,0.0,0.0
1493854735.3,286046928.5,N,0.0,0.0
1493854755.1,286046949.1,N,0.0,0.0
1493854775.8,286046904.4,N,0.0,0.0
1493854795.7,286046946.7,N,0.0,0.0
1493854815.5,286046908.0,N,0.0,0.0
1493854835.3,286046924.7,N,0.0,0.0
1493854855.2,286046897.3,N,0.0,0.0
1493854875.9,286046900.4,N,0.0,0.0
1493854895.7,286046900.8,N,0.0,0.0
1493854915.6,286046901.4,N,0.0,0.0
1493854935.4,286046903.2,N,0.0,0.0
1493854955.2,286046900.7,N,0.0,0.0
1493854975.0,286046903.3,N,0.0,0.0
1493854976.0,286046903.3,N,0.0,0.0
1493854995.8,286046903.0,N,0.0,0.0
1493855015.6,286046902.8,N,0.0,0.0
1493855035.5,286046904.8,N,0.0,0.0
1493855055.3,286046906.0,N,0.0,0.0
1493855075.0,286046904.6,N,0.0,0.0
1493855075.9,286046904.6,N,0.0,0.0
1493855095.8,286046903.6,N,0.0,0.0
1493855115.6,286046903.9,N,0.0,0.0
1493855135.4,286046905.9,N,0.0,0.0
1493855155.2,286046905.6,N,0.0,0.0
1493855175.1,286046870.4,N,0.0,0.0
1493855176.0,286046870.4,N,0.0,0.0
1493855195.8,286046900.9,N,0.0,0.0
1493855215.6,286046903.6,N,0.0,0.0
1493855235.5,286046923.4,N,0.0,0.0
1493855255.7,286046942.7,N,0.0,0.0
1493855275.6,286046944.6,N,0.0,0.0
1493855295.4,286046942.9,N,0.0,0.0
1493855315.2,286046940.6,N,0.0,0.0
1493855335.1,286046944.9,N,0.0,0.0
1493855336.0,286046944.9,N,0.0,0.0
1493855355.8,286046929.2,N,0.0,0.0
1493855375.6,286046945.1,N,0.0,0.0
1493855415.8,286046904.0,N,0.0,0.0
1493855435.7,286046941.0,N,0.0,0.0
1493855455.5,286046988.3,N,0.0,0.0
1493855475.3,286046985.0,N,0.0,0.0
1493855495.2,286046984.6,N,0.0,0.0
1493855515.9,286046984.5,N,0.0,0.0
1493855535.7,286046986.6,N,0.0,0.0
1493855555.6,286046983.9,N,0.0,0.0
1493855575.4,286046986.3,N,0.0,0.0
1493855595.2,286046984.3,N,0.0,0.0
1493855615.1,286046988.0,N,0.0,0.0
1493855616.0,286046988.0,N,0.0,0.0
1493855635.8,286046985.6,N,0.0,0.0
1493855655.6,286046986.6,N,0.0,0.0
1493855675.8,286046988.2,N,0.0,0.0
1493855695.6,286046990.0,N,0.0,0.0
1493855715.4,286046984.9,N,0.0,0.0
1493855735.3,286046983.8,N,0.0,0.0
1493855755.2,286046985.0,N,0.0,0.0
1493855775.0,286046982.3,N,0.0,0.0
1493855775.9,286046982.3,N,0.0,0.0
1493855795.8,286046984.4,N,0.0,0.0
1493855815.6,286046985.9,N,0.0,0.0
1493855835.4,286046985.6,N,0.0,0.0
1493855855.3,286046985.4,N,0.0,0.0
1493855875.1,286046986.0,N,0.0,0.0
1493855895.8,286046988.0,N,0.0,0.0
1493855915.7,286046985.6,N,0.0,0.0
1493855935.5,286046986.2,N,0.0,0.0
1493855955.3,286046985.0,N,0.0,0.0
1493855975.2,286046982.1,N,0.0,0.0
1493855995.8,286046984.1,N,0.0,0.0
